This is the latest recevied weather packets stored in our database for station/object DB0OHA-13. If no packets are shown the sender has not sent any weather packets the latest 10 day(s).
| Time | Temp. | Humidity | Pressure | Rain* | Wind** | Luminosity | Snow |
|---|---|---|---|---|---|---|---|
| 1777829470 | 20° C | 50% | 1010.7 hPa | 0 mm | - | 43 W/m² | - |
| 1777828870 | 20.56° C | 46% | 1010.7 hPa | 0 mm | - | 60 W/m² | - |
| 1777828269 | 20.56° C | 44% | 1010.6 hPa | 0 mm | - | 77 W/m² | - |
| 1777827670 | 20.56° C | 41% | 1010.6 hPa | 0 mm | - | 73 W/m² | - |
| 1777827069 | 21.11° C | 39% | 1010.7 hPa | 0 mm | - | 91 W/m² | - |
| 1777826469 | 21.11° C | 39% | 1010.7 hPa | 0 mm | - | 99 W/m² | - |
| 1777825870 | 21.11° C | 39% | 1010.8 hPa | 0 mm | - | 81 W/m² | - |
| 1777825269 | 21.67° C | 39% | 1011.2 hPa | 0 mm | - | 76 W/m² | - |
| 1777824069 | 21.67° C | 39% | 1011.3 hPa | 0 mm | - | 177 W/m² | - |
| 1777823469 | 21.67° C | 38% | 1011.2 hPa | 0 mm | - | 188 W/m² | - |
| 1777822874 | 22.22° C | 39% | 1011.3 hPa | 0 mm | - | 217 W/m² | - |
| 1777822274 | 21.67° C | 39% | 1011.3 hPa | 0 mm | - | 244 W/m² | - |
| 1777821073 | 21.11° C | 42% | 1011.3 hPa | 0 mm | - | 170 W/m² | - |
| 1777820474 | 21.11° C | 43% | 1011.4 hPa | 0 mm | - | 150 W/m² | - |
| 1777819874 | 21.11° C | 40% | 1011.5 hPa | 0 mm | - | 168 W/m² | - |
| 1777818673 | 21.11° C | 38% | 1011.6 hPa | 0 mm | - | 126 W/m² | - |
| 1777818073 | 21.11° C | 38% | 1011.7 hPa | 0 mm | - | 107 W/m² | - |
| 1777817473 | 21.11° C | 35% | 1011.7 hPa | 0 mm | - | 113 W/m² | - |
| 1777816873 | 21.11° C | 36% | 1011.9 hPa | 0 mm | - | 109 W/m² | - |
| 1777816273 | 21.67° C | 34% | 1012 hPa | 0 mm | - | 168 W/m² | - |
| 1777815673 | 21.67° C | 33% | 1012 hPa | 0 mm | - | 190 W/m² | - |
| 1777815073 | 21.67° C | 35% | 1012.2 hPa | 0 mm | - | 131 W/m² | - |
| 1777813873 | 21.67° C | 37% | 1012.3 hPa | 0 mm | - | 176 W/m² | - |
| 1777813273 | 21.67° C | 37% | 1012.4 hPa | 0 mm | - | 177 W/m² | - |
| 1777812073 | 21.67° C | 40% | 1012.6 hPa | 0 mm | - | 376 W/m² | - |
* Rain latest hour (hover to see other rain measurements)
** Current wind speed in m/s (hover to see current wind gust speed)